This demonstration page uses our WeatherBlox Daily Observations layout. Learn more.

Left ArrowRight Arrow

41.86663, -103.66717

Hourly Observations for January 20, 2021

Temp ( °F °C ) Dew Point ( °F °C ) Humidity (%) Winds ( mph kmh ) Pressure ( in mb ) Visibility ( mi km ) Precip ( " mm )
12:53 am 00:53 Clear 17 -8.3 8 -13.3 68 68 Calm 30.11 1020 10 16 0.00 0.00
1:53 am 01:53 Clear 17 -8.3 8 -13.3 68 68 Calm 30.09 1019 10 16 0.00 0.00
2:53 am 02:53 Clear 17 -8.3 8 -13.3 68 68 Calm 30.06 1018 10 16 0.00 0.00
3:53 am 03:53 Clear 24 -4.4 11 -11.7 57 57 NW 3 6 30.01 1016 10 16 0.00 0.00
4:53 am 04:53 Clear 22 -5.6 11 -11.7 63 63 NNW 3 6 30.04 1017 10 16 0.00 0.00
5:53 am 05:53 Clear 22 -5.6 11 -11.7 63 63 NW 5 7 30.07 1018 10 16 0.00 0.00
6:53 am 06:53 Clear 24 -4.4 12 -11.1 60 60 WNW 10 17 30.06 1018 10 16 0.00 0.00
7:53 am 07:53 Sunny 34 1.1 13 -10.6 42 42 WNW 16 26 30.02 1017 10 16 0.00 0.00
8:53 am 08:53 Sunny 42 5.6 15 -9.4 33 33 WNW 16 26 29.98 1015 10 16 0.00 0.00
9:53 am 09:53 Sunny 49 9.4 15 -9.4 26 26 WNW 22 35 29.97 1015 10 16 0.00 0.00
10:53 am 10:53 Sunny 52 11.1 15 -9.4 23 23 WNW 23 37 29.95 1014 10 16 0.00 0.00
11:53 am 11:53 Sunny 53 11.7 15 -9.4 22 22 WNW 23 37 29.96 1015 10 16 0.00 0.00
12:53 pm 12:53 Sunny 54 12.2 12 -11.1 19 19 WNW 25 41 29.94 1014 10 16 0.00 0.00
1:53 pm 13:53 Sunny 54 12.2 12 -11.1 19 19 WNW 22 35 29.93 1013 10 16 0.00 0.00
2:53 pm 14:53 Sunny 54 12.2 12 -11.1 19 19 WNW 18 30 29.93 1014 10 16 0.00 0.00
3:53 pm 15:53 Sunny 52 11.1 13 -10.6 21 21 WNW 14 22 29.93 1014 10 16 0.00 0.00
4:53 pm 16:53 Sunny 48 8.9 14 -10 25 25 WNW 17 28 29.95 1014 10 16 0.00 0.00
5:53 pm 17:53 Clear 44 6.7 15 -9.4 31 31 WNW 13 20 29.98 1015 10 16 0.00 0.00
6:53 pm 18:53 Clear 41 5 15 -9.4 35 35 W 8 13 29.98 1015 10 16 0.00 0.00
7:53 pm 19:53 Clear 41 5 17 -8.3 38 38 WNW 9 15 29.96 1014 10 16 0.00 0.00
8:53 pm 20:53 Clear 34 1.1 16 -8.9 48 48 WNW 7 11 29.95 1014 10 16 0.00 0.00
9:53 pm 21:53 Clear 40 4.4 17 -8.3 40 40 WSW 10 17 29.91 1013 10 16 0.00 0.00
10:53 pm 22:53 Clear 37 2.8 16 -8.9 42 42 SSW 6 9 29.91 1013 10 16 0.00 0.00
11:53 pm 23:53 Clear 32 0 15 -9.4 50 50 WNW 7 11 29.91 1013 10 16 0.00 0.00

Powered by AerisWeather